Regional Weather Roundup
Issued by NWS

Home | Current Version | Previous Version | Text Only | Print | Product List | Glossary On
Versions: 1 2 3 4 5 6 7 8 9 10 11 12 13 14 15 16 17 18 19 20 21 22 23 24 25 26 27 28
000
ASUS44 KBMX 231410
RWRAL

ALABAMA REGIONAL WEATHER ROUNDUP
NATIONAL WEATHER SERVICE BIRMINGHAM AL
900 AM CDT THU OCT 23 2014

NOTE: "FAIR" INDICATES FEW OR NO CLOUDS BELOW 12,000 FEET
WITH NO SIGNIFICANT WEATHER AND/OR OBSTRUCTIONS TO VISIBILITY.

THE REMARK "TC" DENOTES TEMPERATURE IN DEGREES CELSIUS.

ALZ001>011-014-016>018-020-231500-
NORTH ALABAMA

CITY           SKY/WX    TMP DP  RH WIND       PRES   REMARKS
MUSCLE SHOALS  SUNNY     49  41  74 E6        30.21R
HUNTSVILLE     MOSUNNY   50  42  74 N3        30.18R
DECATUR        SUNNY     48  41  76 N5        30.19R
HALEYVILLE     FAIR      49  43  80 NE6       30.20R
GADSDEN        SUNNY     48  39  71 NE5       30.18S
$$

ALZ012-013-022-023-030>036-040>044-231500-
WEST CENTRAL ALABAMA

CITY           SKY/WX    TMP DP  RH WIND       PRES   REMARKS
TUSCALOOSA     MOSUNNY   51  45  79 CALM      30.19R
$$

ALZ015-024>027-033>036-040>044-231500-
CENTRAL ALABAMA

CITY           SKY/WX    TMP DP  RH WIND       PRES   REMARKS
BIRMINGHAM     MOSUNNY   50  41  71 E8G16     30.17S
MONTGOMERY     SUNNY     53  44  71 NE8       30.15R
SHELBY CO ARPT SUNNY     51  43  74 NE6       30.15S
MAXWELL AFB    SUNNY     52  45  76 NE7       30.15R
GREENVILLE     FAIR      55  44  66 NE5       30.12S
$$

ALZ019-021-028-029-037-038-045>048-231500-
EAST CENTRAL ALABAMA

CITY           SKY/WX    TMP DP  RH WIND       PRES   REMARKS
ANNISTON       SUNNY     49  42  77 NE6       30.18S
ALEXANDER CITY SUNNY     54  46  74 E3        30.16S
AUBURN         SUNNY     52  39  62 NE7       30.18R
$$

ALZ051>064-231500-
SOUTHWEST ALABAMA

CITY           SKY/WX    TMP DP  RH WIND       PRES   REMARKS
MOBILE         MOSUNNY   55  46  71 NE12      30.13R
BROOKLEY FIELD SUNNY     58  47  66 N7        30.14R
EVERGREEN      SUNNY     54  46  74 NE5       30.13R
$$

ALZ049-050-065>069-231500-
SOUTHEAST ALABAMA

CITY           SKY/WX    TMP DP  RH WIND       PRES   REMARKS
DOTHAN         SUNNY     56  48  74 NE5       30.16R
OZARK          SUNNY     54  46  75 NE9       30.13R
TROY           SUNNY     51  45  79 E6        30.14S
EUFAULA        FAIR      53  46  77 CALM      30.14R
$$



USA.gov is the U.S. government's official web portal to all federal, state and local government web resources and services.